| time (UTC) | temp F | wind direction | speed knots | gust knots | rain 1hr in | rain 24hr in | rain mn in | humidity % | barometer mb |
| 20260507202516 | 65 | 315 | 1.7 | 7.8 | 0.00 | 0.22 | 0.16 | 29 | 1003.4 |
| 20260507202018 | 65 | 315 | 3.5 | 11.3 | 0.00 | 0.22 | 0.16 | 28 | 1003.4 |
| 20260507201516 | 65 | 0 | 2.6 | 8.7 | 0.00 | 0.22 | 0.16 | 28 | 1003.5 |
| 20260507201016 | 65 | 0 | 1.7 | 7.0 | 0.00 | 0.22 | 0.16 | 28 | 1003.5 |
| 20260507200536 | 65 | 0 | 2.6 | 10.4 | 0.00 | 0.22 | 0.16 | 29 | 1003.5 |
| 20260507200016 | 65 | 0 | 1.7 | 11.3 | 0.00 | 0.22 | 0.16 | 30 | 1003.5 |
| 20260507195516 | 65 | 0 | 1.7 | 7.8 | 0.00 | 0.22 | 0.16 | 29 | 1003.6 |
| 20260507195037 | 65 | 0 | 2.6 | 9.6 | 0.00 | 0.22 | 0.16 | 29 | 1003.7 |
| 20260507194516 | 65 | 0 | 2.6 | 12.2 | 0.00 | 0.23 | 0.16 | 28 | 1003.7 |
| 20260507194016 | 65 | 0 | 1.7 | 3.5 | 0.00 | 0.23 | 0.16 | 28 | 1003.7 |
| 20260507193517 | 65 | 0 | 1.7 | 4.3 | 0.00 | 0.23 | 0.16 | 26 | 1003.8 |
| 20260507193016 | 65 | 0 | 2.6 | 7.8 | 0.00 | 0.23 | 0.16 | 26 | 1003.8 |
| 20260507192516 | 65 | 0 | 2.6 | 9.6 | 0.00 | 0.23 | 0.16 | 27 | 1003.8 |
| 20260507192018 | 65 | 0 | 1.7 | 6.1 | 0.00 | 0.23 | 0.16 | 27 | 1003.8 |
| 20260507191516 | 65 | 0 | 2.6 | 9.6 | 0.00 | 0.23 | 0.16 | 27 | 1004.0 |
| 20260507191016 | 65 | 293 | 3.5 | 10.4 | 0.00 | 0.23 | 0.16 | 28 | 1004.0 |
| 20260507190516 | 65 | 0 | 3.5 | 11.3 | 0.00 | 0.23 | 0.16 | 28 | 1004.1 |
| 20260507190016 | 65 | 0 | 4.3 | 10.4 | 0.00 | 0.23 | 0.16 | 28 | 1004.0 |
| 20260507185515 | 65 | 293 | 4.3 | 13.0 | 0.00 | 0.23 | 0.16 | 29 | 1004.1 |
| 20260507185015 | 65 | 0 | 2.6 | 7.0 | 0.00 | 0.23 | 0.16 | 28 | 1004.1 |
| 20260507184516 | 65 | 0 | 2.6 | 11.3 | 0.00 | 0.23 | 0.16 | 29 | 1004.1 |
| 20260507184016 | 65 | 0 | 3.5 | 11.3 | 0.00 | 0.23 | 0.16 | 29 | 1004.2 |
| 20260507183516 | 65 | 0 | 2.6 | 10.4 | 0.00 | 0.23 | 0.16 | 30 | 1004.1 |
| 20260507183016 | 65 | 0 | 1.7 | 7.0 | 0.00 | 0.23 | 0.16 | 30 | 1004.2 |
| 20260507182516 | 65 | 0 | 1.7 | 4.3 | 0.00 | 0.23 | 0.16 | 29 | 1004.3 |
| 20260507182016 | 65 | 0 | 1.7 | 7.0 | 0.00 | 0.23 | 0.16 | 31 | 1004.3 |
| 20260507181515 | 65 | 0 | 2.6 | 7.0 | 0.00 | 0.23 | 0.16 | 32 | 1004.4 |
| 20260507181015 | 65 | 0 | 1.7 | 7.8 | 0.00 | 0.23 | 0.16 | 30 | 1004.6 |
| 20260507180516 | 65 | 0 | 1.7 | 7.8 | 0.00 | 0.23 | 0.16 | 30 | 1004.6 |
| 20260507180016 | 66 | 0 | 1.7 | 6.1 | 0.00 | 0.23 | 0.16 | 31 | 1004.5 |
| 20260507175516 | 66 | 0 | 2.6 | 10.4 | 0.00 | 0.23 | 0.16 | 32 | 1004.6 |
| 20260507175037 | 66 | 0 | 2.6 | 12.2 | 0.00 | 0.23 | 0.16 | 31 | 1004.6 |
| 20260507174516 | 66 | 0 | 1.7 | 4.3 | 0.00 | 0.23 | 0.16 | 31 | 1004.5 |
| 20260507174015 | 66 | 0 | 3.5 | 11.3 | 0.00 | 0.23 | 0.16 | 31 | 1004.4 |
| 20260507173515 | 67 | 0 | 2.6 | 9.6 | 0.00 | 0.23 | 0.16 | 32 | 1004.6 |
| 20260507173017 | 66 | 0 | 2.6 | 11.3 | 0.00 | 0.23 | 0.16 | 32 | 1004.6 |
| 20260507172516 | 66 | 0 | 1.7 | 12.2 | 0.00 | 0.23 | 0.16 | 33 | 1004.6 |
| 20260507172016 | 66 | 0 | 2.6 | 7.8 | 0.00 | 0.23 | 0.16 | 33 | 1004.6 |
| 20260507171516 | 66 | 0 | 2.6 | 10.4 | 0.00 | 0.23 | 0.16 | 36 | 1004.6 |
| 20260507171016 | 66 | 0 | 2.6 | 8.7 | 0.00 | 0.23 | 0.16 | 37 | 1004.7 |
| 20260507170516 | 66 | 0 | 3.5 | 13.0 | 0.00 | 0.23 | 0.16 | 39 | 1004.5 |
| 20260507170016 | 66 | 0 | 1.7 | 9.6 | 0.00 | 0.23 | 0.16 | 37 | 1004.7 |
| 20260507165516 | 65 | 0 | 1.7 | 7.0 | 0.00 | 0.23 | 0.16 | 39 | 1004.9 |
| 20260507165015 | 65 | 0 | 2.6 | 9.6 | 0.00 | 0.23 | 0.16 | 39 | 1004.9 |
| 20260507164516 | 64 | 0 | 2.6 | 11.3 | 0.00 | 0.23 | 0.16 | 43 | 1004.9 |
| 20260507164037 | 64 | 0 | 1.7 | 7.8 | 0.00 | 0.23 | 0.16 | 42 | 1005.0 |
| 20260507163516 | 64 | 0 | 1.7 | 7.0 | 0.00 | 0.23 | 0.16 | 44 | 1005.1 |
| 20260507163016 | 64 | 0 | 1.7 | 4.3 | 0.00 | 0.23 | 0.16 | 44 | 1005.1 |
| 20260507162515 | 64 | 0 | 2.6 | 11.3 | 0.00 | 0.23 | 0.16 | 45 | 1005.1 |
| 20260507162016 | 64 | 0 | 2.6 | 11.3 | 0.00 | 0.23 | 0.16 | 44 | 1005.2 |
| 20260507161536 | 64 | 0 | 0.9 | 3.5 | 0.00 | 0.23 | 0.16 | 44 | 1005.2 |
| 20260507161038 | 64 | 0 | 2.6 | 8.7 | 0.00 | 0.23 | 0.16 | 44 | 1005.3 |
| 20260507160515 | 64 | 0 | 1.7 | 3.5 | 0.00 | 0.23 | 0.16 | 46 | 1005.4 |
| 20260507160015 | 64 | 0 | 1.7 | 3.5 | 0.00 | 0.23 | 0.16 | 47 | 1005.4 |
| 20260507155515 | 63 | 0 | 2.6 | 7.0 | 0.00 | 0.23 | 0.16 | 48 | 1005.4 |
| 20260507155015 | 63 | 0 | 0.9 | 7.8 | 0.00 | 0.23 | 0.16 | 49 | 1005.4 |
| 20260507154515 | 63 | 0 | 1.7 | 5.2 | 0.00 | 0.23 | 0.16 | 49 | 1005.5 |
| 20260507154015 | 63 | 225 | 1.7 | 7.0 | 0.00 | 0.23 | 0.16 | 48 | 1005.6 |
| 20260507153536 | 63 | 0 | 2.6 | 9.6 | 0.00 | 0.23 | 0.16 | 49 | 1005.6 |
| 20260507153015 | 63 | 0 | 3.5 | 8.7 | 0.00 | 0.23 | 0.16 | 49 | 1005.7 |
| 20260507152558 | 63 | 0 | 0.9 | 4.3 | 0.00 | 0.23 | 0.16 | 49 | 1005.7 |
| 20260507152015 | 63 | 0 | 1.7 | 5.2 | 0.00 | 0.23 | 0.16 | 50 | 1005.8 |
| 20260507151515 | 63 | 0 | 0.9 | 3.5 | 0.00 | 0.23 | 0.16 | 50 | 1005.8 |
| 20260507151035 | 62 | 225 | 0.9 | 6.1 | 0.00 | 0.23 | 0.16 | 50 | 1005.8 |
| 20260507150516 | 62 | 270 | 1.7 | 5.2 | 0.00 | 0.23 | 0.16 | 52 | 1005.9 |
| 20260507150036 | 62 | 225 | 1.7 | 6.1 | 0.00 | 0.23 | 0.16 | 52 | 1005.9 |
| 20260507145535 | 61 | 270 | 1.7 | 7.0 | 0.00 | 0.23 | 0.16 | 52 | 1006.0 |
| 20260507145037 | 61 | 0 | 3.5 | 9.6 | 0.00 | 0.23 | 0.16 | 52 | 1006.0 |
| 20260507144518 | 62 | 0 | 0.9 | 7.0 | 0.00 | 0.23 | 0.16 | 52 | 1006.1 |
| 20260507144035 | 62 | 0 | 0.9 | 3.5 | 0.00 | 0.23 | 0.16 | 52 | 1006.2 |
| 20260507143515 | 62 | 0 | 0.9 | 4.3 | 0.00 | 0.23 | 0.16 | 50 | 1006.3 |
| 20260507143055 | 62 | 0 | 1.7 | 7.0 | 0.00 | 0.23 | 0.16 | 50 | 1006.2 |
| 20260507142515 | 61 | 0 | 0.9 | 3.5 | 0.00 | 0.23 | 0.16 | 50 | 1006.2 |
| 20260507142016 | 61 | 0 | 0.9 | 3.5 | 0.00 | 0.23 | 0.16 | 51 | 1006.2 |
| 20260507141535 | 60 | 0 | 1.7 | 7.0 | 0.00 | 0.23 | 0.16 | 52 | 1006.3 |
| 20260507141037 | 60 | 0 | 2.6 | 8.7 | 0.00 | 0.23 | 0.16 | 53 | 1006.3 |
| 20260507140515 | 60 | 0 | 1.7 | 6.1 | 0.00 | 0.23 | 0.16 | 55 | 1006.2 |
| 20260507140015 | 59 | 225 | 1.7 | 4.3 | 0.00 | 0.23 | 0.16 | 55 | 1006.3 |
| 20260507135535 | 58 | 293 | 1.7 | 6.1 | 0.00 | 0.23 | 0.16 | 58 | 1006.2 |
| 20260507135015 | 58 | 315 | 1.7 | 6.1 | 0.00 | 0.23 | 0.16 | 59 | 1006.3 |
| 20260507134515 | 58 | 315 | 3.5 | 8.7 | 0.00 | 0.23 | 0.16 | 61 | 1006.3 |
| 20260507134016 | 57 | 315 | 2.6 | 9.6 | 0.00 | 0.23 | 0.16 | 62 | 1006.3 |
| 20260507133515 | 57 | 270 | 1.7 | 7.0 | 0.00 | 0.23 | 0.16 | 65 | 1006.3 |
| 20260507133015 | 57 | 293 | 2.6 | 9.6 | 0.00 | 0.23 | 0.16 | 68 | 1006.4 |
| 20260507132515 | 56 | 293 | 1.7 | 7.0 | 0.00 | 0.23 | 0.16 | 72 | 1006.3 |
| 20260507132015 | 56 | 225 | 1.7 | 4.3 | 0.00 | 0.23 | 0.16 | 71 | 1006.4 |
| 20260507131516 | 55 | 225 | 1.7 | 5.2 | 0.00 | 0.23 | 0.16 | 72 | 1006.5 |
| 20260507131035 | 55 | 293 | 0.9 | 3.5 | 0.00 | 0.23 | 0.16 | 77 | 1006.5 |
| 20260507130515 | 54 | 270 | 1.7 | 7.0 | 0.00 | 0.23 | 0.16 | 78 | 1006.5 |
| 20260507130035 | 54 | 225 | 0.9 | 3.5 | 0.00 | 0.23 | 0.16 | 81 | 1006.5 |
| 20260507125515 | 53 | 270 | 2.6 | 7.8 | 0.00 | 0.23 | 0.16 | 82 | 1006.6 |
| 20260507125015 | 53 | 270 | 0.9 | 4.3 | 0.00 | 0.23 | 0.16 | 84 | 1006.7 |
| 20260507124515 | 52 | 315 | 1.7 | 4.3 | 0.00 | 0.23 | 0.16 | 85 | 1006.8 |
| 20260507124035 | 52 | 293 | 1.7 | 8.7 | 0.00 | 0.23 | 0.16 | 87 | 1006.7 |
| 20260507123535 | 51 | 293 | 1.7 | 6.1 | 0.00 | 0.23 | 0.16 | 87 | 1006.8 |
| 20260507123015 | 51 | 270 | 0.9 | 4.3 | 0.00 | 0.23 | 0.16 | 88 | 1006.8 |
| 20260507122536 | 51 | 270 | 1.7 | 3.5 | 0.00 | 0.23 | 0.16 | 88 | 1006.7 |
| 20260507122015 | 51 | 293 | 1.7 | 7.8 | 0.00 | 0.23 | 0.16 | 88 | 1006.6 |
| 20260507121535 | 51 | 270 | 0.9 | 6.1 | 0.00 | 0.23 | 0.16 | 89 | 1006.5 |
| 20260507121015 | 51 | 270 | 0.9 | 2.6 | 0.00 | 0.23 | 0.16 | 89 | 1006.7 |
| 20260507120515 | 50 | 315 | 0.9 | 2.6 | 0.00 | 0.23 | 0.16 | 88 | 1006.5 |
| 20260507120015 | 50 | 270 | 0.9 | 3.5 | 0.00 | 0.23 | 0.16 | 88 | 1006.5 |
| 20260507115536 | 50 | 225 | 0.9 | 2.6 | 0.00 | 0.23 | 0.16 | 88 | 1006.5 |
| 20260507115017 | 50 | 225 | 0.9 | 4.3 | 0.00 | 0.23 | 0.16 | 88 | 1006.6 |
| 20260507114515 | 50 | 270 | 0.9 | 3.5 | 0.00 | 0.23 | 0.16 | 88 | 1006.5 |
| 20260507114015 | 50 | 225 | 0.9 | 2.6 | 0.00 | 0.23 | 0.16 | 88 | 1006.6 |
| 20260507113536 | 50 | 225 | 0.9 | 2.6 | 0.00 | 0.23 | 0.16 | 88 | 1006.6 |
| 20260507113015 | 50 | 225 | 0.9 | 1.7 | 0.00 | 0.23 | 0.16 | 88 | 1006.4 |
| 20260507112515 | 50 | 270 | 0.9 | 1.7 | 0.00 | 0.23 | 0.16 | 88 | 1006.3 |
| 20260507112035 | 50 | 225 | 0.9 | 3.5 | 0.00 | 0.23 | 0.16 | 88 | 1006.3 |
| 20260507111535 | 50 | 225 | 0.9 | 4.3 | 0.00 | 0.23 | 0.16 | 88 | 1006.4 |
| 20260507111055 | 50 | 225 | 0.9 | 2.6 | 0.00 | 0.23 | 0.16 | 88 | 1006.4 |
| 20260507110535 | 50 | 225 | 0.9 | 3.5 | 0.01 | 0.23 | 0.16 | 88 | 1006.3 |
| 20260507110036 | 50 | 225 | 0.9 | 1.7 | 0.01 | 0.23 | 0.16 | 88 | 1006.1 |
| 20260507105515 | 50 | 293 | 0.9 | 3.5 | 0.01 | 0.23 | 0.16 | 88 | 1006.2 |
| 20260507105015 | 50 | 315 | 0.9 | 2.6 | 0.01 | 0.23 | 0.16 | 88 | 1006.2 |
| 20260507104556 | 50 | 0.0 | 1.7 | 0.02 | 0.23 | 0.16 | 88 | 1006.4 | |
| 20260507104016 | 50 | 0.0 | 0.9 | 0.03 | 0.23 | 0.16 | 88 | 1006.5 | |
| 20260507103515 | 50 | 225 | 0.9 | 0.9 | 0.04 | 0.23 | 0.16 | 88 | 1006.5 |
| 20260507103015 | 50 | 225 | 0.9 | 1.7 | 0.05 | 0.23 | 0.16 | 88 | 1006.6 |
| 20260507102515 | 50 | 225 | 0.9 | 1.7 | 0.05 | 0.23 | 0.16 | 88 | 1006.4 |
| 20260507102015 | 50 | 0.0 | 1.7 | 0.06 | 0.23 | 0.16 | 88 | 1005.9 | |
| 20260507101556 | 50 | 0.0 | 1.7 | 0.06 | 0.23 | 0.16 | 87 | 1006.0 | |
| 20260507101015 | 51 | 0.0 | 1.7 | 0.08 | 0.23 | 0.16 | 87 | 1006.2 | |
| 20260507100515 | 51 | 225 | 0.9 | 2.6 | 0.08 | 0.22 | 0.15 | 87 | 1006.3 |
| 20260507100036 | 51 | 0.0 | 1.7 | 0.08 | 0.22 | 0.15 | 87 | 1005.9 | |
| 20260507095515 | 51 | 0.0 | 1.7 | 0.09 | 0.22 | 0.15 | 87 | 1005.8 | |
| 20260507095015 | 51 | 0.0 | 1.7 | 0.10 | 0.22 | 0.15 | 87 | 1005.7 | |
| 20260507094515 | 51 | 293 | 0.9 | 4.3 | 0.10 | 0.21 | 0.14 | 87 | 1005.8 |
| 20260507094015 | 51 | 270 | 0.9 | 2.6 | 0.10 | 0.20 | 0.13 | 87 | 1005.8 |
| 20260507093515 | 51 | 225 | 0.9 | 3.5 | 0.09 | 0.19 | 0.12 | 86 | 1006.0 |
| 20260507093015 | 51 | 270 | 0.9 | 5.2 | 0.08 | 0.18 | 0.11 | 86 | 1005.7 |
| 20260507092515 | 52 | 0 | 1.7 | 4.3 | 0.08 | 0.18 | 0.11 | 86 | 1005.5 |
| 20260507092015 | 52 | 0 | 1.7 | 6.1 | 0.08 | 0.17 | 0.10 | 86 | 1005.5 |
| 20260507091515 | 52 | 0 | 0.9 | 7.0 | 0.08 | 0.17 | 0.10 | 85 | 1005.5 |
| 20260507091055 | 52 | 270 | 0.9 | 8.7 | 0.07 | 0.15 | 0.08 | 85 | 1005.8 |
| 20260507090515 | 52 | 315 | 0.9 | 3.5 | 0.06 | 0.14 | 0.07 | 85 | 1005.9 |
| 20260507090015 | 52 | 270 | 0.9 | 4.3 | 0.06 | 0.14 | 0.07 | 85 | 1006.0 |
| 20260507085515 | 53 | 225 | 0.9 | 5.2 | 0.06 | 0.13 | 0.06 | 84 | 1005.9 |
| 20260507085015 | 53 | 225 | 0.9 | 2.6 | 0.05 | 0.12 | 0.05 | 84 | 1005.9 |
| 20260507084517 | 53 | 225 | 0.9 | 2.6 | 0.04 | 0.11 | 0.04 | 84 | 1005.9 |
| 20260507084017 | 53 | 225 | 0.9 | 2.6 | 0.03 | 0.10 | 0.03 | 83 | 1005.9 |
| 20260507083517 | 54 | 270 | 0.9 | 3.5 | 0.03 | 0.10 | 0.03 | 83 | 1005.6 |
| 20260507083017 | 54 | 270 | 0.9 | 3.5 | 0.03 | 0.10 | 0.03 | 83 | 1005.4 |
| 20260507082517 | 54 | 270 | 0.9 | 2.6 | 0.03 | 0.10 | 0.03 | 82 | 1005.5 |
| 20260507082037 | 54 | 225 | 0.9 | 3.5 | 0.02 | 0.09 | 0.02 | 82 | 1005.4 |
| 20260507081517 | 54 | 225 | 0.9 | 2.6 | 0.02 | 0.09 | 0.02 | 82 | 1005.3 |
| 20260507081017 | 55 | 315 | 1.7 | 8.7 | 0.01 | 0.08 | 0.01 | 82 | 1005.5 |
| 20260507080517 | 55 | 270 | 1.7 | 7.0 | 0.01 | 0.08 | 0.01 | 82 | 1005.9 |
| 20260507080017 | 56 | 225 | 0.9 | 4.3 | 0.01 | 0.08 | 0.01 | 83 | 1005.7 |
| 20260507075537 | 56 | 225 | 0.9 | 2.6 | 0.00 | 0.07 | 0.00 | 83 | 1005.3 |
| 20260507075017 | 56 | 270 | 0.9 | 4.3 | 0.00 | 0.07 | 0.00 | 82 | 1005.1 |
| 20260507074517 | 56 | 225 | 0.9 | 7.8 | 0.00 | 0.07 | 0.00 | 82 | 1005.3 |
| 20260507074017 | 56 | 225 | 1.7 | 4.3 | 0.00 | 0.07 | 0.00 | 82 | 1005.4 |
| 20260507073517 | 56 | 270 | 1.7 | 6.1 | 0.00 | 0.07 | 0.00 | 82 | 1005.2 |
| 20260507073017 | 57 | 293 | 1.7 | 7.8 | 0.00 | 0.07 | 0.00 | 82 | 1005.0 |
| 20260507072518 | 57 | 248 | 1.7 | 6.1 | 0.00 | 0.07 | 0.00 | 82 | 1004.7 |
| 20260507072018 | 57 | 225 | 0.9 | 3.5 | 0.00 | 0.07 | 0.00 | 82 | 1004.5 |
| 20260507071517 | 57 | 293 | 1.7 | 7.0 | 0.00 | 0.07 | 0.00 | 82 | 1004.5 |
| 20260507071017 | 57 | 248 | 0.9 | 3.5 | 0.00 | 0.07 | 0.00 | 82 | 1004.5 |
| 20260507070516 | 57 | 293 | 0.9 | 4.3 | 0.00 | 0.07 | 0.00 | 82 | 1004.6 |
| 20260507070016 | 57 | 0 | 1.7 | 7.0 | 0.00 | 0.07 | 0.00 | 82 | 1004.4 |
| 20260507065516 | 58 | 293 | 0.9 | 4.3 | 0.00 | 0.07 | 0.00 | 82 | 1004.4 |
| 20260507065017 | 58 | 270 | 0.9 | 3.5 | 0.00 | 0.07 | 0.00 | 82 | 1004.5 |
| 20260507064517 | 58 | 270 | 0.9 | 5.2 | 0.00 | 0.07 | 0.00 | 82 | 1004.6 |
| 20260507064016 | 58 | 270 | 1.7 | 7.8 | 0.00 | 0.07 | 0.00 | 81 | 1004.7 |
| 20260507063517 | 58 | 0 | 2.6 | 9.6 | 0.00 | 0.07 | 0.00 | 81 | 1004.7 |
| 20260507063017 | 58 | 0 | 1.7 | 7.0 | 0.00 | 0.07 | 0.00 | 81 | 1004.8 |
| 20260507062516 | 58 | 248 | 1.7 | 4.3 | 0.00 | 0.07 | 0.00 | 82 | 1004.6 |
| 20260507062037 | 59 | 293 | 1.7 | 4.3 | 0.00 | 0.07 | 0.00 | 83 | 1004.5 |
| 20260507061516 | 59 | 270 | 0.9 | 4.3 | 0.00 | 0.07 | 0.00 | 83 | 1004.4 |
| 20260507061016 | 59 | 293 | 1.7 | 5.2 | 0.00 | 0.07 | 0.00 | 83 | 1004.4 |
| 20260507060517 | 59 | 270 | 0.9 | 3.5 | 0.00 | 0.07 | 0.00 | 83 | 1004.5 |
| 20260507060017 | 59 | 0 | 1.7 | 7.0 | 0.00 | 0.07 | 0.00 | 83 | 1004.7 |
| 20260507055517 | 59 | 0 | 0.9 | 4.3 | 0.00 | 0.07 | 0.00 | 83 | 1004.6 |
| 20260507055016 | 59 | 0 | 0.9 | 2.6 | 0.00 | 0.07 | 0.00 | 83 | 1004.8 |
| 20260507054516 | 59 | 0 | 0.9 | 6.1 | 0.00 | 0.07 | 0.00 | 83 | 1004.8 |
| 20260507054016 | 59 | 225 | 0.9 | 3.5 | 0.00 | 0.07 | 0.00 | 84 | 1005.2 |
| 20260507053537 | 60 | 225 | 0.9 | 2.6 | 0.00 | 0.07 | 0.00 | 85 | 1005.0 |
| 20260507053017 | 60 | 225 | 0.9 | 3.5 | 0.00 | 0.07 | 0.00 | 85 | 1004.9 |
| 20260507052517 | 60 | 225 | 0.9 | 3.5 | 0.00 | 0.07 | 0.00 | 85 | 1004.9 |
| 20260507052017 | 60 | 225 | 0.9 | 3.5 | 0.00 | 0.07 | 0.00 | 85 | 1004.7 |
| 20260507051517 | 60 | 225 | 1.7 | 3.5 | 0.00 | 0.07 | 0.00 | 86 | 1004.5 |
| 20260507051016 | 60 | 270 | 1.7 | 7.0 | 0.00 | 0.07 | 0.00 | 86 | 1004.6 |
| 20260507050516 | 60 | 225 | 1.7 | 10.4 | 0.00 | 0.07 | 0.00 | 87 | 1004.7 |
| 20260507050016 | 60 | 225 | 1.7 | 8.7 | 0.00 | 0.07 | 0.00 | 88 | 1004.7 |
| 20260507045516 | 60 | 270 | 1.7 | 4.3 | 0.00 | 0.07 | 0.00 | 89 | 1004.8 |
| 20260507045017 | 60 | 225 | 0.9 | 3.5 | 0.00 | 0.07 | 0.00 | 89 | 1004.7 |
| 20260507044516 | 61 | 225 | 0.9 | 4.3 | 0.00 | 0.07 | 0.00 | 90 | 1004.6 |
| 20260507044036 | 61 | 225 | 0.9 | 4.3 | 0.00 | 0.07 | 0.00 | 90 | 1004.6 |
| 20260507043516 | 61 | 225 | 1.7 | 6.1 | 0.00 | 0.07 | 0.00 | 90 | 1004.5 |
| 20260507043019 | 61 | 225 | 0.9 | 3.5 | 0.00 | 0.07 | 0.00 | 90 | 1004.5 |
| 20260507042516 | 61 | 225 | 0.9 | 2.6 | 0.00 | 0.07 | 0.00 | 90 | 1004.4 |
| 20260507042018 | 61 | 225 | 0.9 | 1.7 | 0.00 | 0.07 | 0.00 | 90 | 1004.4 |
| 20260507041516 | 61 | 225 | 0.9 | 1.7 | 0.00 | 0.07 | 0.00 | 90 | 1004.5 |
| 20260507041017 | 61 | 225 | 0.9 | 3.5 | 0.00 | 0.07 | 0.00 | 90 | 1004.6 |
| 20260507040516 | 61 | 225 | 0.9 | 1.7 | 0.00 | 0.07 | 0.00 | 90 | 1004.8 |
| 20260507040016 | 61 | 225 | 0.9 | 3.5 | 0.00 | 0.07 | 0.07 | 90 | 1004.9 |
| 20260507035515 | 61 | 225 | 0.9 | 3.5 | 0.00 | 0.07 | 0.07 | 90 | 1004.8 |
| 20260507035014 | 61 | 180 | 0.9 | 6.1 | 0.00 | 0.07 | 0.07 | 90 | 1004.7 |
| 20260507034538 | 60 | 180 | 0.9 | 6.1 | 0.00 | 0.07 | 0.07 | 90 | 1004.7 |
| 20260507034037 | 60 | 225 | 0.9 | 4.3 | 0.00 | 0.07 | 0.07 | 90 | 1004.6 |
| 20260507033516 | 60 | 180 | 0.9 | 4.3 | 0.00 | 0.07 | 0.07 | 90 | 1004.5 |
| 20260507033019 | 60 | 180 | 1.7 | 6.1 | 0.00 | 0.07 | 0.07 | 90 | 1004.5 |
| 20260507032516 | 60 | 180 | 1.7 | 7.0 | 0.00 | 0.07 | 0.07 | 90 | 1004.4 |
| 20260507032017 | 60 | 225 | 1.7 | 7.0 | 0.00 | 0.07 | 0.07 | 90 | 1004.4 |
| 20260507031516 | 60 | 180 | 1.7 | 3.5 | 0.00 | 0.07 | 0.07 | 90 | 1004.3 |
| 20260507031017 | 60 | 180 | 1.7 | 7.0 | 0.00 | 0.07 | 0.07 | 90 | 1004.3 |
| 20260507030517 | 60 | 203 | 0.9 | 3.5 | 0.00 | 0.07 | 0.07 | 91 | 1004.1 |
| 20260507030017 | 60 | 225 | 0.9 | 4.3 | 0.00 | 0.07 | 0.07 | 91 | 1004.1 |
| 20260507025516 | 60 | 158 | 0.9 | 4.3 | 0.00 | 0.07 | 0.07 | 90 | 1004.1 |
| 20260507025017 | 60 | 158 | 1.7 | 4.3 | 0.00 | 0.07 | 0.07 | 90 | 1004.1 |
| 20260507024517 | 60 | 225 | 0.9 | 4.3 | 0.00 | 0.07 | 0.07 | 90 | 1004.2 |
| 20260507024037 | 60 | 203 | 1.7 | 6.1 | 0.00 | 0.07 | 0.07 | 90 | 1004.4 |
| 20260507023516 | 60 | 203 | 0.9 | 4.3 | 0.00 | 0.07 | 0.07 | 90 | 1004.4 |
| 20260507023017 | 60 | 203 | 0.9 | 3.5 | 0.00 | 0.07 | 0.07 | 90 | 1004.3 |
| 20260507022516 | 60 | 225 | 0.9 | 3.5 | 0.00 | 0.07 | 0.07 | 90 | 1004.3 |
| 20260507022016 | 60 | 225 | 0.9 | 4.3 | 0.00 | 0.07 | 0.07 | 90 | 1004.2 |
| 20260507021518 | 60 | 225 | 1.7 | 5.2 | 0.00 | 0.07 | 0.07 | 90 | 1004.2 |
| 20260507021036 | 60 | 180 | 1.7 | 5.2 | 0.00 | 0.07 | 0.07 | 90 | 1004.3 |
| 20260507020537 | 60 | 225 | 1.7 | 5.2 | 0.00 | 0.07 | 0.07 | 90 | 1004.4 |
| 20260507020018 | 59 | 203 | 1.7 | 7.8 | 0.00 | 0.07 | 0.07 | 90 | 1004.3 |
| 20260507015557 | 59 | 203 | 1.7 | 5.2 | 0.00 | 0.07 | 0.07 | 90 | 1004.3 |
| 20260507015016 | 59 | 158 | 1.7 | 9.6 | 0.00 | 0.07 | 0.07 | 90 | 1004.3 |
| 20260507014516 | 59 | 135 | 2.6 | 7.0 | 0.00 | 0.07 | 0.07 | 90 | 1004.3 |
| 20260507014036 | 59 | 158 | 2.6 | 7.0 | 0.00 | 0.07 | 0.07 | 90 | 1004.4 |
| 20260507013536 | 59 | 158 | 1.7 | 10.4 | 0.00 | 0.07 | 0.07 | 90 | 1004.5 |
| 20260507013016 | 59 | 203 | 1.7 | 9.6 | 0.00 | 0.07 | 0.07 | 90 | 1004.5 |
| 20260507012516 | 59 | 158 | 1.7 | 7.0 | 0.00 | 0.07 | 0.07 | 90 | 1004.5 |
| 20260507012016 | 59 | 225 | 0.9 | 7.0 | 0.00 | 0.07 | 0.07 | 90 | 1004.6 |
| 20260507011516 | 59 | 225 | 1.7 | 6.1 | 0.00 | 0.07 | 0.07 | 90 | 1004.6 |
| 20260507011039 | 59 | 225 | 1.7 | 7.0 | 0.00 | 0.07 | 0.07 | 90 | 1004.7 |
| 20260507010517 | 59 | 203 | 1.7 | 4.3 | 0.00 | 0.07 | 0.07 | 90 | 1004.8 |
| 20260507010016 | 59 | 135 | 2.6 | 9.6 | 0.00 | 0.07 | 0.07 | 90 | 1004.8 |
| 20260507005516 | 59 | 180 | 2.6 | 9.6 | 0.01 | 0.07 | 0.07 | 90 | 1004.8 |
| 20260507005016 | 59 | 203 | 2.6 | 7.0 | 0.01 | 0.07 | 0.07 | 90 | 1004.8 |
| 20260507004516 | 59 | 225 | 1.7 | 6.1 | 0.02 | 0.07 | 0.07 | 90 | 1004.8 |
| 20260507004017 | 59 | 180 | 2.6 | 7.0 | 0.02 | 0.07 | 0.07 | 90 | 1004.8 |
| 20260507003516 | 59 | 158 | 2.6 | 9.6 | 0.02 | 0.07 | 0.07 | 90 | 1004.7 |
| 20260507003016 | 59 | 135 | 2.6 | 11.3 | 0.02 | 0.07 | 0.07 | 89 | 1004.7 |
| 20260507002536 | 59 | 135 | 2.6 | 9.6 | 0.02 | 0.07 | 0.07 | 89 | 1004.7 |
| 20260507002016 | 59 | 158 | 3.5 | 11.3 | 0.02 | 0.07 | 0.07 | 89 | 1004.6 |
| 20260507001557 | 59 | 158 | 2.6 | 10.4 | 0.02 | 0.07 | 0.07 | 89 | 1004.6 |
| 20260507001017 | 59 | 180 | 2.6 | 7.8 | 0.02 | 0.07 | 0.07 | 89 | 1004.5 |
| 20260507000516 | 59 | 135 | 3.5 | 13.0 | 0.03 | 0.07 | 0.07 | 89 | 1004.4 |
| 20260507000016 | 59 | 158 | 1.7 | 6.1 | 0.03 | 0.07 | 0.07 | 89 | 1004.4 |
| 20260506235516 | 59 | 158 | 2.6 | 9.6 | 0.02 | 0.06 | 0.06 | 89 | 1004.4 |
| 20260506235016 | 59 | 158 | 2.6 | 8.7 | 0.02 | 0.06 | 0.06 | 89 | 1004.5 |
| 20260506234517 | 59 | 158 | 2.6 | 8.7 | 0.01 | 0.05 | 0.05 | 89 | 1004.4 |
| 20260506234036 | 60 | 0 | 5.2 | 12.2 | 0.01 | 0.05 | 0.05 | 89 | 1004.4 |
| 20260506233536 | 60 | 0 | 3.5 | 9.6 | 0.01 | 0.05 | 0.05 | 89 | 1004.4 |
| 20260506233016 | 60 | 0 | 4.3 | 10.4 | 0.01 | 0.05 | 0.05 | 89 | 1004.3 |
| 20260506232536 | 60 | 0 | 3.5 | 9.6 | 0.01 | 0.05 | 0.05 | 89 | 1004.2 |
| 20260506232037 | 60 | 0 | 4.3 | 13.0 | 0.01 | 0.05 | 0.05 | 89 | 1004.3 |
| 20260506231536 | 60 | 0 | 4.3 | 16.5 | 0.01 | 0.05 | 0.05 | 89 | 1004.3 |
| 20260506231017 | 60 | 0 | 4.3 | 12.2 | 0.01 | 0.05 | 0.05 | 88 | 1004.3 |
| 20260506230537 | 60 | 0 | 5.2 | 11.3 | 0.00 | 0.04 | 0.04 | 89 | 1004.3 |
| 20260506230016 | 60 | 0 | 5.2 | 11.3 | 0.00 | 0.04 | 0.04 | 88 | 1004.3 |
| 20260506225518 | 60 | 0 | 3.5 | 12.2 | 0.01 | 0.04 | 0.04 | 88 | 1004.3 |
| 20260506225016 | 60 | 0 | 3.5 | 12.2 | 0.01 | 0.04 | 0.04 | 88 | 1004.3 |
| 20260506224516 | 61 | 0 | 5.2 | 12.2 | 0.01 | 0.04 | 0.04 | 88 | 1004.4 |
| 20260506224017 | 61 | 0 | 4.3 | 10.4 | 0.01 | 0.04 | 0.04 | 88 | 1004.5 |
| 20260506223516 | 61 | 0 | 4.3 | 13.9 | 0.02 | 0.04 | 0.04 | 88 | 1004.6 |
| 20260506223016 | 61 | 0 | 4.3 | 10.4 | 0.02 | 0.04 | 0.04 | 88 | 1004.6 |
| 20260506222516 | 61 | 0 | 4.3 | 13.0 | 0.02 | 0.04 | 0.04 | 87 | 1004.8 |
| 20260506222016 | 61 | 0 | 6.1 | 14.8 | 0.02 | 0.04 | 0.04 | 87 | 1004.8 |
| 20260506221517 | 62 | 0 | 5.2 | 12.2 | 0.02 | 0.04 | 0.04 | 87 | 1004.7 |
| 20260506221016 | 62 | 0 | 6.1 | 12.2 | 0.02 | 0.04 | 0.04 | 87 | 1005.0 |
| 20260506220516 | 62 | 0 | 3.5 | 10.4 | 0.02 | 0.04 | 0.04 | 86 | 1004.9 |
| 20260506220036 | 62 | 0 | 4.3 | 10.4 | 0.02 | 0.04 | 0.04 | 86 | 1004.9 |
| 20260506215537 | 63 | 158 | 4.3 | 9.6 | 0.01 | 0.03 | 0.03 | 86 | 1005.0 |
| 20260506215016 | 63 | 135 | 2.6 | 10.4 | 0.01 | 0.03 | 0.03 | 85 | 1005.0 |
| 20260506214516 | 63 | 158 | 3.5 | 15.6 | 0.02 | 0.03 | 0.03 | 85 | 1005.1 |
| 20260506214016 | 63 | 158 | 3.5 | 15.6 | 0.02 | 0.03 | 0.03 | 85 | 1005.1 |
| 20260506213516 | 63 | 158 | 2.6 | 10.4 | 0.01 | 0.02 | 0.02 | 84 | 1005.2 |
| 20260506213037 | 63 | 158 | 3.5 | 13.9 | 0.01 | 0.02 | 0.02 | 84 | 1005.2 |
| 20260506212516 | 63 | 158 | 4.3 | 12.2 | 0.01 | 0.02 | 0.02 | 83 | 1005.1 |
| 20260506212018 | 63 | 158 | 4.3 | 10.4 | 0.01 | 0.02 | 0.02 | 83 | 1005.1 |
| 20260506211516 | 63 | 158 | 3.5 | 10.4 | 0.01 | 0.02 | 0.02 | 83 | 1005.1 |
| 20260506211017 | 64 | 203 | 3.5 | 11.3 | 0.01 | 0.02 | 0.02 | 82 | 1005.2 |
| 20260506210516 | 63 | 0 | 4.3 | 13.0 | 0.01 | 0.02 | 0.02 | 82 | 1005.3 |
| 20260506210016 | 64 | 0 | 2.6 | 11.3 | 0.01 | 0.02 | 0.02 | 82 | 1005.4 |
| 20260506205536 | 64 | 0 | 3.5 | 13.0 | 0.01 | 0.02 | 0.02 | 81 | 1005.3 |
| 20260506205016 | 64 | 0 | 4.3 | 10.4 | 0.01 | 0.02 | 0.02 | 81 | 1005.4 |
| 20260506204517 | 64 | 0 | 4.3 | 11.3 | 0.01 | 0.01 | 0.01 | 80 | 1005.5 |
| 20260506204016 | 64 | 0 | 4.3 | 15.6 | 0.01 | 0.01 | 0.01 | 79 | 1005.5 |
| 20260506203516 | 64 | 0 | 4.3 | 15.6 | 0.01 | 0.01 | 0.01 | 79 | 1005.5 |
| 20260506203036 | 64 | 0 | 4.3 | 14.8 | 0.01 | 0.01 | 0.01 | 78 | 1005.3 |